Regional Weather Roundup
Issued by NWS

Home | Current Version | Previous Version | Graphics & Text | Print | Product List | Glossary Off
Versions: 1 2 3 4 5 6 7 8 9 10 11 12 13 14 15 16 17 18 19 20 21 22 23 24 25 26 27 28 29 30 31 32 33 34 35 36 37 38 39 40 41 42 43 44 45 46 47 48 49 50

000
ASUS43 KBIS 061710
RWRND

NORTH DAKOTA REGIONAL WEATHER ROUNDUP
NATIONAL WEATHER SERVICE BISMARCK ND
1200 PM CDT FRI MAY 06 2016

NOTE: "FAIR" INDICATES FEW OR NO CLOUDS BELOW 12,000 FEET WITH NO
SIGNIFICANT WEATHER AND/OR OBSTRUCTIONS TO VISIBILITY.


NDZ001>003-009>011-017-061800-
NORTHWEST NORTH DAKOTA

CITY           SKY/WX    TMP DP  RH WIND       PRES   REMARKS
WILLISTON      CLOUDY    60  44  55 N18       30.11R
MINOT          CLOUDY    71  42  35 N24G30    29.99R
MINOT AFB      CLOUDY    65  45  49 N18       29.99R
$$

NDZ018>021-031>035-040>046-061800-
SOUTHWEST NORTH DAKOTA

CITY           SKY/WX    TMP DP  RH WIND       PRES   REMARKS
BISMARCK       MOSUNNY   73  50  44 N16       29.94R
DICKINSON      MOSUNNY   67  45  45 N20       30.02R
GARRISON         N/A     69  45  41 N14G28    29.99R
HETTINGER ARPT SUNNY     71  46  40 N28G35    29.99R
$$

NDZ004>008-012>016-024-026-027-054-061800-
NORTHEAST NORTH DAKOTA

CITY           SKY/WX    TMP DP  RH WIND       PRES   REMARKS
GRAND FORKS    PTSUNNY   69  43  38 N28G37    29.82R
GRND FRKS AFB  SUNNY     68  43  40 N23G35    29.84R
DEVILS LAKE    SUNNY     67  43  41 N25       29.92R
$$

NDZ022-023-025-028>030-036>039-047>053-061800-
SOUTHEAST NORTH DAKOTA

CITY           SKY/WX    TMP DP  RH WIND       PRES   REMARKS
FARGO          MOSUNNY   86  48  26 N10G16    29.74F
JAMESTOWN      CLOUDY    72  46  39 N32G43    29.83R
$$





USA.gov is the U.S. government's official web portal to all federal, state and local government web resources and services.